Weather History for KGRF - February, 2013

Change the Weather History Date:

Tuesday, February 26, 2013

  Actual Average Record
Temperature  
Mean Temperature 41 °F -  
Max Temperature 49 °F 49 °F 54 °F (2008)
Min Temperature 33 °F 31 °F 14 °F (2011)
Degree Days  
Heating Degree Days 24    
Moisture  
Dew Point 33 °F    
Average Humidity 74    
Maximum Humidity 96    
Minimum Humidity 50    
Precipitation  
Precipitation 0.00 in - - ()
Sea Level Pressure  
Sea Level Pressure 30.28 in    
Wind  
Wind Speed 6 mph (South)    
Max Wind Speed 13 mph    
Max Gust Speed -    
Visibility 10 miles    
Events      
Averages and records for this station are not official NWS values.
T = Trace of Precipitation, MM = Missing Value Source: NWS Daily Summary

Daily Weather History Graph

Daily Weather History Graph

Search for Another Location

Airport or City:

Trip Planner

Search our weather history database for the weather conditions in past years. The results will help you decide how hot, cold, wet, or windy it might be!

Date:

Astronomy

Feb. 26, 2013 Rise Set
Actual Time 6:55 AM PST 5:51 PM PST
Civil Twilight 6:24 AM PST 6:22 PM PST
Nautical Twilight 5:49 AM PST 6:57 PM PST
Astronomical Twilight 5:13 AM PST 7:33 PM PST
Moon 7:23 PM PST 6:53 AM PST
Length of Visible Light 11h 58m
Length of Day
10h 56m
Full, 99% of the Moon is Illuminated
Feb 26
Full
Mar 4
Last Quarter
Mar 11
New
Mar 19
First Quarter
Mar 27
Full

Hourly Weather History & Observations

Time (PST) Temp. Windchill Dew Point Humidity Pressure Visibility Wind Dir Wind Speed Gust Speed Precip Events Conditions
12:58 AM 33.6 °F 30.6 °F 32.5 °F 96% 30.33 in 10.0 mi SE 3.5 mph - N/A   Clear
1:58 AM 33.1 °F 27.7 °F 32.0 °F 96% 30.34 in 10.0 mi SE 5.8 mph - N/A   Partly Cloudy
2:58 AM 36.7 °F 30.5 °F 34.0 °F 90% 30.35 in 10.0 mi SE 8.1 mph - N/A   Scattered Clouds
3:08 AM 37.4 °F 32.1 °F 33.8 °F 87% 30.33 in 10.0 mi SE 6.9 mph - N/A   Mostly Cloudy
3:58 AM 38.1 °F 31.7 °F 34.0 °F 85% 30.35 in 10.0 mi SE 9.2 mph - N/A   Overcast
4:13 AM 37.4 °F 32.1 °F 33.8 °F 87% 30.33 in 10.0 mi SE 6.9 mph - N/A   Mostly Cloudy
4:58 AM 36.3 °F 31.6 °F 33.4 °F 89% 30.36 in 10.0 mi SE 5.8 mph - N/A   Mostly Cloudy
5:43 AM 33.8 °F 27.7 °F 32.0 °F 93% 30.34 in 10.0 mi SE 6.9 mph - N/A   Mostly Cloudy
5:53 AM 33.8 °F 28.6 °F 32.0 °F 93% 30.34 in 10.0 mi SE 5.8 mph - N/A   Mostly Cloudy
5:58 AM 34.0 °F 28.8 °F 32.4 °F 94% 30.36 in 10.0 mi SE 5.8 mph - N/A   Mostly Cloudy
6:48 AM 35.6 °F 29.9 °F 32.0 °F 87% 30.34 in 10.0 mi SE 6.9 mph - N/A   Light Drizzle
6:58 AM 35.2 °F 30.3 °F 33.6 °F 94% 30.36 in 10.0 mi SE 5.8 mph - 0.00 in   Light Drizzle
7:01 AM 35.6 °F 30.7 °F 33.8 °F 93% 30.35 in 10.0 mi SE 5.8 mph - N/A   Overcast
7:58 AM 37.0 °F 32.4 °F 34.3 °F 90% 30.37 in 10.0 mi SE 5.8 mph - 0.00 in   Overcast
8:58 AM 37.9 °F 34.4 °F 34.7 °F 88% 30.37 in 10.0 mi SE 4.6 mph - N/A   Clear
9:58 AM 42.6 °F 39.0 °F 34.5 °F 73% 30.35 in 10.0 mi SE 5.8 mph - N/A   Overcast
10:58 AM 45.5 °F 41.8 °F 34.0 °F 64% 30.33 in 10.0 mi ESE 6.9 mph - N/A   Scattered Clouds
11:58 AM 45.5 °F 39.9 °F 31.3 °F 58% 30.32 in 10.0 mi SSE 11.5 mph - N/A   Scattered Clouds
12:58 PM 47.7 °F - 32.0 °F 55% 30.30 in 10.0 mi SSE 12.7 mph - N/A   Scattered Clouds
1:58 PM 49.5 °F - 31.6 °F 50% 30.28 in 10.0 mi South 9.2 mph - N/A   Scattered Clouds
2:58 PM 46.8 °F - 32.4 °F 57% 30.27 in 10.0 mi South 6.9 mph - N/A   Overcast
3:58 PM 46.4 °F 44.3 °F 31.8 °F 57% 30.26 in 10.0 mi SSW 4.6 mph - N/A   Overcast
4:58 PM 45.7 °F 43.4 °F 31.3 °F 57% 30.25 in 10.0 mi SSW 4.6 mph - N/A   Overcast
5:58 PM 44.1 °F - 32.4 °F 63% 30.24 in 10.0 mi SSW 2.3 mph - N/A   Clear
6:29 PM 44.6 °F 42.2 °F 32.0 °F 61% 30.22 in 10.0 mi SSW 4.6 mph - N/A   Scattered Clouds
6:41 PM 44.6 °F 43.1 °F 32.0 °F 61% 30.22 in 10.0 mi SSW 3.5 mph - N/A   Mostly Cloudy
6:46 PM 44.6 °F 42.2 °F 32.0 °F 61% 30.22 in 10.0 mi SSW 4.6 mph - N/A   Light Drizzle
6:51 PM 44.6 °F - 32.0 °F 61% 30.22 in 10.0 mi SSW 2.3 mph - N/A   Light Drizzle
6:58 PM 43.9 °F - 33.6 °F 67% 30.24 in 10.0 mi SSW 2.3 mph - 0.00 in   Light Drizzle
7:03 PM 42.8 °F - 33.8 °F 70% 30.22 in 10.0 mi SW 1.2 mph - N/A   Light Drizzle
7:08 PM 42.8 °F 41.1 °F 33.8 °F 70% 30.22 in 10.0 mi SSW 3.5 mph - N/A   Light Drizzle
7:13 PM 42.8 °F - 33.8 °F 70% 30.22 in 10.0 mi SW 1.2 mph - N/A   Light Drizzle
7:15 PM 42.8 °F - 33.8 °F 70% 30.22 in 10.0 mi SW 2.3 mph - N/A   Scattered Clouds
7:58 PM 42.1 °F - 35.4 °F 77% 30.22 in 10.0 mi Calm Calm - 0.00 in   Mostly Cloudy
8:58 PM 43.0 °F 39.5 °F 33.6 °F 70% 30.22 in 10.0 mi SSW 5.8 mph - N/A   Overcast
9:58 PM 43.0 °F 40.3 °F 33.4 °F 69% 30.21 in 10.0 mi SSW 4.6 mph - N/A   Overcast
10:58 PM 44.1 °F 42.5 °F 34.2 °F 68% 30.22 in 10.0 mi SSW 3.5 mph - N/A   Overcast
11:44 PM 44.6 °F 41.4 °F 33.8 °F 66% 30.20 in 10.0 mi SSW 5.8 mph - N/A   Overcast
11:54 PM 44.6 °F 41.4 °F 33.8 °F 66% 30.19 in 10.0 mi SSW 5.8 mph - N/A   Overcast
11:58 PM 44.2 °F 41.0 °F 34.3 °F 68% 30.21 in 10.0 mi SSW 5.8 mph - 0.00 in   Overcast